Regional Weather Roundup
Issued by NWS Charleston, WV

Home | Current Version | Previous Version | Graphics & Text | Print | Product List | Glossary On
Versions: 1 2 3 4 5 6 7 8 9 10 11 12 13 14 15 16 17 18 19 20 21 22 23 24 25 26 27
000
ASUS41 KRLX 061410
RWRRLX
West Virginia Regional Weather Roundup
National Weather Service Charleston WV
1000 AM EDT FRI MAY 06 2016

Note: "fair" indicates few or no clouds below 12,000 feet with no
significant weather and/or obstructions to visibility.

WVZ003-061500-
Northern Panhandle of West Virginia

CITY           SKY/WX    TMP DP  RH WIND       PRES   REMARKS
WHEELING         N/A     58  44  60 N10       29.84S
$$

WVZ009-061500-
Northwest West Virginia

CITY           SKY/WX    TMP DP  RH WIND       PRES   REMARKS
PARKERSBURG      N/A     57  46  66 NW10      29.89R
$$

WVZ006-061500-
Western West Virginia

CITY           SKY/WX    TMP DP  RH WIND       PRES   REMARKS
HUNTINGTON       N/A     56  43  61 N6        29.91R
$$

WVZ015-061500-
West Central West Virginia

CITY           SKY/WX    TMP DP  RH WIND       PRES   REMARKS
CHARLESTON     CLOUDY    56  47  71 VRB3      29.88R
$$

WVZ022-031-061500-
North Central West Virginia

CITY           SKY/WX    TMP DP  RH WIND       PRES   REMARKS
CLARKSBURG     CLOUDY    53  45  74 N10       29.82S
MORGANTOWN     CLOUDY    53  44  71 N6        29.83R
$$

WVZ025-035-042-045-061500-
Southern West Virginia

CITY           SKY/WX    TMP DP  RH WIND       PRES   REMARKS
BECKLEY        CLOUDY    46  42  86 N12       29.85R
LOGAN          NOT AVBL
BLUEFIELD      CLOUDY    44  42  93 VRB5      29.85S
LEWISBURG      CLOUDY    49  40  71 N13G21    29.80R
$$

WVZ047-061500-
Northern Mountains of West Virginia

CITY           SKY/WX    TMP DP  RH WIND       PRES   REMARKS
ELKINS         LGT RAIN  48  43  82 NW5       29.81R
$$

WVZ052-061500-
Eastern Panhandle of West Virginia

CITY           SKY/WX    TMP DP  RH WIND       PRES   REMARKS
MARTINSBURG    LGT RAIN  53  47  79 N7        29.71S
PETERSBURG     RAIN      55  50  82 CALM      29.77S
$$




USA.gov is the U.S. government's official web portal to all federal, state and local government web resources and services.